Location: ????????
(60.5616°N, 46.8254°E)
Time: 18:18:34
(UTC+00:00)

Cosmos 2034 Rocket - Pass Details

Date: 18 February 2020
Orbit: 959 x 1000 km, 82.9° (Epoch: 04 April)

Event Time Altitude Azimuth Distance (km) Brightness Sun altitude
Exits shadow 18:10:58 68° 257° (WSW) 1,037 4.1 -31.5°
Maximum altitude 18:11:25 70° 287° (WNW) 1,021 4.1 -31.5°
Drops below altitude 10° 18:17:36 10° 12° (NNE) 2,708 6.6 -32.1°
Sets 18:20:08 0° 15° (NNE) 3,659 7.3 -32.4°
